TimeCST,TemperatureF,Dew PointF,Humidity,Sea Level PressureIn,VisibilityMPH,Wind Direction,Wind SpeedMPH,Gust SpeedMPH,PrecipitationIn,Events,Conditions,WindDirDegrees,DateUTC
12:15 AM,41.0,30.2,65,29.80,10.0,NW,4.6,-,N/A,,Clear,310,2012-11-09 06:15:00
12:35 AM,39.2,32.0,75,29.80,10.0,NW,5.8,-,N/A,,Clear,310,2012-11-09 06:35:00
12:55 AM,41.0,32.0,70,29.80,10.0,NW,3.5,-,N/A,,Clear,310,2012-11-09 06:55:00
1:15 AM,39.2,30.2,70,29.79,10.0,NNW,4.6,-,N/A,,Clear,330,2012-11-09 07:15:00
1:35 AM,37.4,30.2,75,29.79,10.0,NW,4.6,-,N/A,,Clear,310,2012-11-09 07:35:00
1:55 AM,35.6,28.4,75,29.78,10.0,NNW,5.8,-,N/A,,Clear,330,2012-11-09 07:55:00
2:15 AM,35.6,30.2,81,29.78,10.0,NNW,6.9,-,N/A,,Clear,330,2012-11-09 08:15:00
2:35 AM,37.4,30.2,75,29.78,10.0,Calm,Calm,-,N/A,,Clear,0,2012-11-09 08:35:00
2:55 AM,37.4,30.2,75,29.77,10.0,Calm,Calm,-,N/A,,Clear,0,2012-11-09 08:55:00
3:15 AM,35.6,28.4,75,29.77,10.0,Calm,Calm,-,N/A,,Clear,0,2012-11-09 09:15:00
3:35 AM,35.6,28.4,75,29.76,10.0,Calm,Calm,-,N/A,,Clear,0,2012-11-09 09:35:00
3:55 AM,35.6,28.4,75,29.76,10.0,Calm,Calm,-,N/A,,Clear,0,2012-11-09 09:55:00
4:15 AM,33.8,28.4,81,29.75,10.0,Calm,Calm,-,N/A,,Clear,0,2012-11-09 10:15:00
4:35 AM,33.8,28.4,81,29.75,10.0,Calm,Calm,-,N/A,,Clear,0,2012-11-09 10:35:00
4:55 AM,33.8,28.4,81,29.75,10.0,Calm,Calm,-,N/A,,Clear,0,2012-11-09 10:55:00
5:15 AM,33.8,26.6,75,29.77,10.0,NW,6.9,-,N/A,,Clear,320,2012-11-09 11:15:00
5:55 AM,33.8,28.4,81,29.76,10.0,NW,3.5,-,N/A,,Clear,320,2012-11-09 11:55:00
6:15 AM,33.8,28.4,81,29.77,10.0,Calm,Calm,-,N/A,,Clear,0,2012-11-09 12:15:00
6:35 AM,33.8,28.4,81,29.76,10.0,Calm,Calm,-,N/A,,Clear,0,2012-11-09 12:35:00
6:55 AM,33.8,28.4,81,29.77,10.0,NW,5.8,-,N/A,,Clear,310,2012-11-09 12:55:00
7:15 AM,33.8,28.4,81,29.77,10.0,West,5.8,-,N/A,,Clear,280,2012-11-09 13:15:00
7:35 AM,33.8,28.4,81,29.78,10.0,WNW,8.1,-,N/A,,Clear,300,2012-11-09 13:35:00
7:55 AM,35.6,30.2,81,29.78,10.0,WNW,4.6,-,N/A,,Clear,300,2012-11-09 13:55:00
8:15 AM,37.4,33.8,87,29.79,10.0,WNW,3.5,-,N/A,,Clear,300,2012-11-09 14:15:00
8:55 AM,41.0,33.8,76,29.79,10.0,NW,5.8,-,N/A,,Clear,320,2012-11-09 14:55:00
9:15 AM,42.8,33.8,70,29.79,10.0,North,4.6,-,N/A,,Clear,350,2012-11-09 15:15:00
9:35 AM,44.6,35.6,71,29.78,10.0,Calm,Calm,-,N/A,,Clear,0,2012-11-09 15:35:00
9:55 AM,46.4,37.4,71,29.78,10.0,Calm,Calm,-,N/A,,Clear,0,2012-11-09 15:55:00
10:15 AM,50.0,37.4,62,29.78,10.0,Calm,Calm,-,N/A,,Clear,0,2012-11-09 16:15:00
10:35 AM,53.6,39.2,58,29.78,10.0,Calm,Calm,-,N/A,,Clear,0,2012-11-09 16:35:00
10:55 AM,55.4,39.2,54,29.77,10.0,SSW,5.8,-,N/A,,Clear,200,2012-11-09 16:55:00
11:15 AM,59.0,39.2,48,29.76,10.0,South,4.6,-,N/A,,Clear,180,2012-11-09 17:15:00
11:35 AM,62.6,42.8,48,29.75,10.0,South,9.2,-,N/A,,Clear,190,2012-11-09 17:35:00
11:55 AM,66.2,44.6,46,29.74,10.0,SSW,10.4,-,N/A,,Clear,210,2012-11-09 17:55:00
12:15 PM,68.0,44.6,43,29.72,10.0,South,10.4,-,N/A,,Clear,180,2012-11-09 18:15:00
12:35 PM,71.6,46.4,41,29.71,10.0,South,8.1,-,N/A,,Clear,180,2012-11-09 18:35:00
12:55 PM,73.4,46.4,38,29.69,10.0,South,9.2,-,N/A,,Clear,180,2012-11-09 18:55:00
1:15 PM,77.0,48.2,36,29.67,10.0,South,17.3,25.3,N/A,,Clear,180,2012-11-09 19:15:00
1:35 PM,78.8,48.2,34,29.66,10.0,South,16.1,26.5,N/A,,Clear,180,2012-11-09 19:35:00
1:55 PM,80.6,48.2,32,29.64,10.0,South,18.4,24.2,N/A,,Clear,180,2012-11-09 19:55:00
2:15 PM,80.6,48.2,32,29.63,10.0,South,21.9,27.6,N/A,,Clear,180,2012-11-09 20:15:00
2:35 PM,80.6,48.2,32,29.62,10.0,South,21.9,28.8,N/A,,Clear,170,2012-11-09 20:35:00
2:55 PM,82.4,46.4,28,29.62,10.0,South,23.0,27.6,N/A,,Clear,170,2012-11-09 20:55:00
3:15 PM,82.4,46.4,28,29.61,10.0,South,26.5,31.1,N/A,,Clear,180,2012-11-09 21:15:00
3:35 PM,82.4,46.4,28,29.61,10.0,South,23.0,33.4,N/A,,Clear,170,2012-11-09 21:35:00
3:55 PM,82.4,46.4,28,29.61,10.0,South,26.5,32.2,N/A,,Clear,170,2012-11-09 21:55:00
4:15 PM,80.6,46.4,30,29.60,10.0,South,26.5,32.2,N/A,,Clear,170,2012-11-09 22:15:00
4:35 PM,80.6,46.4,30,29.60,10.0,South,19.6,-,N/A,,Clear,170,2012-11-09 22:35:00
4:55 PM,78.8,46.4,32,29.60,10.0,South,18.4,-,N/A,,Clear,170,2012-11-09 22:55:00
5:15 PM,77.0,44.6,32,29.60,10.0,South,18.4,-,N/A,,Clear,170,2012-11-09 23:15:00
5:35 PM,75.2,44.6,34,29.60,10.0,South,20.7,24.2,N/A,,Clear,170,2012-11-09 23:35:00
5:55 PM,73.4,44.6,36,29.61,10.0,South,21.9,25.3,N/A,,Clear,170,2012-11-09 23:55:00
6:15 PM,73.4,44.6,36,29.61,10.0,South,21.9,25.3,N/A,,Clear,170,2012-11-10 00:15:00
6:35 PM,73.4,46.4,38,29.62,10.0,South,21.9,27.6,N/A,,Clear,170,2012-11-10 00:35:00
6:55 PM,71.6,46.4,41,29.63,10.0,South,20.7,27.6,N/A,,Clear,180,2012-11-10 00:55:00
7:15 PM,71.6,46.4,41,29.63,10.0,South,23.0,28.8,N/A,,Clear,180,2012-11-10 01:15:00
7:35 PM,71.6,48.2,43,29.63,10.0,South,19.6,25.3,N/A,,Clear,180,2012-11-10 01:35:00
7:55 PM,69.8,50.0,49,29.63,10.0,South,24.2,29.9,N/A,,Clear,180,2012-11-10 01:55:00
8:15 PM,69.8,51.8,53,29.63,10.0,South,25.3,31.1,N/A,,Clear,180,2012-11-10 02:15:00
8:35 PM,69.8,51.8,53,29.63,10.0,South,24.2,29.9,N/A,,Clear,180,2012-11-10 02:35:00
8:55 PM,69.8,51.8,53,29.63,10.0,South,21.9,29.9,N/A,,Clear,180,2012-11-10 02:55:00
9:15 PM,68.0,51.8,56,29.63,10.0,South,21.9,27.6,N/A,,Clear,180,2012-11-10 03:15:00
9:35 PM,66.2,51.8,60,29.63,10.0,South,21.9,-,N/A,,Clear,180,2012-11-10 03:35:00
9:55 PM,66.2,51.8,60,29.63,10.0,South,24.2,-,N/A,,Clear,180,2012-11-10 03:55:00
10:15 PM,66.2,51.8,60,29.64,10.0,South,19.6,28.8,N/A,,Clear,180,2012-11-10 04:15:00
10:35 PM,66.2,51.8,60,29.64,10.0,South,25.3,29.9,N/A,,Clear,180,2012-11-10 04:35:00
10:55 PM,66.2,50.0,56,29.64,10.0,South,18.4,-,N/A,,Clear,190,2012-11-10 04:55:00
11:15 PM,66.2,46.4,49,29.64,10.0,SSW,20.7,26.5,N/A,,Clear,200,2012-11-10 05:15:00
11:35 PM,66.2,46.4,49,29.65,10.0,South,21.9,27.6,N/A,,Clear,190,2012-11-10 05:35:00
11:55 PM,64.4,46.4,52,29.65,10.0,South,19.6,25.3,N/A,,Clear,190,2012-11-10 05:55:00